Tracking 19638 objects as of 20-Apr-2019
HD Live streaming from Space Station
objects crossing your sky now

SL-8 R/B

Track SL-8 R/B now!
10-day predictions


NORAD ID: 16728
Int'l Code: 1986-037B
Perigee: 959.0 km
Apogee: 1,006.4 km
Inclination: 83.0 °
Period: 104.6 minutes
Semi major axis: 7353 km
RCS: 5.2364 m2 (large)
Launch date: May 23, 1986
Source: Commonwealth of Independent States (former USSR) (CIS)
Launch site: PLESETSK MISSILE AND SPACE COMPLEX (PKMTR)

Note: This is a ROCKET BODY
aabbcc
Your satellite tracking list
Your tracking list is empty




NASA's NSSDC Master Catalog

Two Line Element Set (TLE):
1 16728U 86037B   19109.35157185  .00000024  00000-0  86000-5 0  9998
2 16728  82.9584 199.8794 0032200 125.5377 297.9577 13.76721048652880
Source of the keplerian elements: AFSPC